Zurück zum Katalog

STARLINK-5961

AktivKommunikationVLEO
NORAD 56914·PAYLOAD·🇺🇸 United States

Gestartet Jun 12, 2023 von Cape Canaveral Space Force Station

Loading…

Nächste Überflüge (nächste 24 Stunden)

TLE

AktuellSource: CelesTrak SupGP

Epoche: Sep 15, 2026, 02:02 UTC

1 56914C 23083AQ  26258.08520833 -.00005243  00000+0 -18987-3 0  2582
2 56914  43.0006  80.6784 0001900 261.0836 266.8838 15.27585711    13

Verfolge STARLINK-5961 in Echtzeit mit AllMySat

Download on the App Store